• In Deutschland
  • Länderverzeichnis
  • Für 7 Tage
  • Wassertemperatur
  • Satellitenkarten
  • Wetterkarte
  • Widgets
  • user-avatar
    Anmelden

    Stündliche Wetter Polotsk

    Heute, 17 August, Donnerstag

    Zeit Temperatur Niederschläge Wind Luftdruck Luftfeuchtigkeit
    00:00 +18°C° 0,2 mm 2 m/S 752 mmHg 96%
    01:00 +18°C° 0,2 mm 2 m/S 752 mmHg 96%
    02:00 +18°C° 0,2 mm 3 m/S 752 mmHg 96%
    03:00 +18°C° 0,3 mm 2 m/S 752 mmHg 96%
    04:00 +18°C° 0,3 mm 2 m/S 752 mmHg 97%
    05:00 +18°C° 0,3 mm 2 m/S 752 mmHg 97%
    06:00 +18°C° 0,3 mm 3 m/S 752 mmHg 95%
    07:00 +19°C° 0,3 mm 3 m/S 752 mmHg 93%
    08:00 +20°C° 0,3 mm 3 m/S 752 mmHg 90%
    09:00 +22°C° 0,4 mm 3 m/S 752 mmHg 86%
    10:00 +24°C° 0,4 mm 3 m/S 752 mmHg 82%
    11:00 +25°C° 0,4 mm 3 m/S 752 mmHg 78%
    12:00 +26°C° 0,7 mm 3 m/S 752 mmHg 74%
    13:00 +26°C° 0,7 mm 3 m/S 752 mmHg 70%
    14:00 +27°C° 0,7 mm 3 m/S 751 mmHg 67%
    15:00 +27°C° 0,5 mm 3 m/S 751 mmHg 69%
    16:00 +27°C° 0,5 mm 2 m/S 751 mmHg 71%
    17:00 +26°C° 0,5 mm 2 m/S 751 mmHg 74%
    18:00 +25°C° 0,4 mm 2 m/S 751 mmHg 78%
    19:00 +23°C° 0,4 mm 2 m/S 751 mmHg 83%
    20:00 +21°C° 0,4 mm 2 m/S 751 mmHg 87%
    21:00 +20°C° 0,1 mm 2 m/S 751 mmHg 89%
    22:00 +19°C° 0,1 mm 2 m/S 751 mmHg 91%
    23:00 +19°C° 0,1 mm 2 m/S 751 mmHg 92%

    Morgen, 18 August, Freitag

    Zeit Temperatur Niederschläge Wind Luftdruck Luftfeuchtigkeit
    00:00 +19°C° 0 mm 2 m/S 751 mmHg 93%
    01:00 +18°C° 0 mm 2 m/S 751 mmHg 93%
    02:00 +18°C° 0 mm 2 m/S 751 mmHg 94%
    03:00 +18°C° 0 mm 2 m/S 751 mmHg 94%
    04:00 +18°C° 0 mm 2 m/S 750 mmHg 94%
    05:00 +17°C° 0 mm 2 m/S 750 mmHg 95%
    06:00 +19°C° 0 mm 2 m/S 751 mmHg 91%
    07:00 +20°C° 0 mm 2 m/S 751 mmHg 87%
    08:00 +21°C° 0 mm 2 m/S 751 mmHg 84%
    09:00 +24°C° 0,2 mm 2 m/S 751 mmHg 79%
    10:00 +25°C° 0,2 mm 3 m/S 751 mmHg 73%
    11:00 +27°C° 0,2 mm 3 m/S 751 mmHg 68%
    12:00 +27°C° 0,5 mm 3 m/S 751 mmHg 66%
    13:00 +28°C° 0,5 mm 3 m/S 750 mmHg 63%
    14:00 +29°C° 0,5 mm 3 m/S 750 mmHg 61%
    15:00 +28°C° 0,4 mm 3 m/S 750 mmHg 65%
    16:00 +28°C° 0,4 mm 2 m/S 750 mmHg 69%
    17:00 +27°C° 0,4 mm 1 m/S 750 mmHg 72%
    18:00 +26°C° 0,2 mm 1 m/S 750 mmHg 76%
    19:00 +24°C° 0,2 mm 1 m/S 750 mmHg 79%
    20:00 +23°C° 0,2 mm 1 m/S 750 mmHg 82%
    21:00 +21°C° 0,4 mm 2 m/S 750 mmHg 84%
    22:00 +20°C° 0,4 mm 2 m/S 750 mmHg 87%
    23:00 +20°C° 0,4 mm 2 m/S 750 mmHg 90%

    übermorgen, 19 August, Samstag

    Zeit Temperatur Niederschläge Wind Luftdruck Luftfeuchtigkeit
    00:00 +19°C° 0 mm 2 m/S 750 mmHg 89%
    01:00 +19°C° 0 mm 2 m/S 750 mmHg 89%
    02:00 +19°C° 0 mm 2 m/S 750 mmHg 88%
    03:00 +18°C° 0 mm 3 m/S 750 mmHg 87%
    04:00 +18°C° 0 mm 3 m/S 750 mmHg 86%
    05:00 +17°C° 0 mm 3 m/S 750 mmHg 84%
    06:00 +19°C° 0 mm 3 m/S 750 mmHg 80%
    07:00 +20°C° 0 mm 3 m/S 750 mmHg 76%
    08:00 +22°C° 0 mm 3 m/S 750 mmHg 72%
    09:00 +25°C° 0 mm 4 m/S 750 mmHg 66%
    10:00 +27°C° 0 mm 4 m/S 750 mmHg 59%
    11:00 +29°C° 0 mm 4 m/S 750 mmHg 53%
    12:00 +30°C° 0 mm 4 m/S 750 mmHg 51%
    13:00 +30°C° 0 mm 5 m/S 750 mmHg 48%
    14:00 +32°C° 0 mm 5 m/S 750 mmHg 46%
    15:00 +30°C° 0 mm 4 m/S 750 mmHg 49%
    16:00 +30°C° 0 mm 4 m/S 749 mmHg 53%
    17:00 +29°C° 0 mm 3 m/S 749 mmHg 56%
    18:00 +27°C° 0 mm 3 m/S 749 mmHg 60%
    19:00 +25°C° 0 mm 3 m/S 749 mmHg 64%
    20:00 +22°C° 0 mm 3 m/S 749 mmHg 67%
    21:00 +22°C° 0 mm 3 m/S 749 mmHg 67%
    22:00 +21°C° 0 mm 3 m/S 748 mmHg 67%
    23:00 +21°C° 0 mm 3 m/S 748 mmHg 67%

    20 August, Sonntag

    Zeit Temperatur Niederschläge Wind Luftdruck Luftfeuchtigkeit
    00:00 +21°C° 0 mm 4 m/S 748 mmHg 65%
    01:00 +21°C° 0 mm 4 m/S 748 mmHg 63%
    02:00 +20°C° 0 mm 4 m/S 748 mmHg 61%
    03:00 +20°C° 0 mm 4 m/S 748 mmHg 60%
    04:00 +20°C° 0 mm 4 m/S 748 mmHg 60%
    05:00 +19°C° 0 mm 4 m/S 748 mmHg 60%
    06:00 +20°C° 0 mm 4 m/S 748 mmHg 61%
    07:00 +21°C° 0 mm 3 m/S 749 mmHg 62%
    08:00 +22°C° 0 mm 3 m/S 749 mmHg 64%
    09:00 +24°C° 0 mm 3 m/S 749 mmHg 63%
    10:00 +24°C° 0 mm 3 m/S 749 mmHg 62%
    11:00 +25°C° 0 mm 2 m/S 750 mmHg 62%
    12:00 +25°C° 0 mm 2 m/S 750 mmHg 63%
    13:00 +26°C° 0 mm 3 m/S 750 mmHg 64%
    14:00 +26°C° 0 mm 3 m/S 750 mmHg 65%
    15:00 +25°C° 0 mm 3 m/S 750 mmHg 69%
    16:00 +24°C° 0 mm 3 m/S 750 mmHg 73%
    17:00 +21°C° 0 mm 3 m/S 750 mmHg 77%
    18:00 +20°C° 0 mm 3 m/S 750 mmHg 80%
    19:00 +19°C° 0 mm 3 m/S 750 mmHg 82%
    20:00 +18°C° 0 mm 3 m/S 750 mmHg 84%
    21:00 +17°C° 0,1 mm 3 m/S 750 mmHg 83%
    22:00 +17°C° 0,1 mm 3 m/S 750 mmHg 82%
    23:00 +16°C° 0,1 mm 3 m/S 750 mmHg 81%

    21 August, Montag

    Zeit Temperatur Niederschläge Wind Luftdruck Luftfeuchtigkeit
    00:00 +16°C° 0,3 mm 3 m/S 750 mmHg 82%
    01:00 +15°C° 0,3 mm 2 m/S 750 mmHg 84%
    02:00 +15°C° 0,3 mm 2 m/S 750 mmHg 85%
    03:00 +15°C° 0,2 mm 2 m/S 750 mmHg 88%
    04:00 +15°C° 0,2 mm 2 m/S 750 mmHg 90%
    05:00 +14°C° 0,2 mm 2 m/S 750 mmHg 92%
    06:00 +14°C° 0,8 mm 2 m/S 751 mmHg 93%
    07:00 +15°C° 0,8 mm 2 m/S 751 mmHg 93%
    08:00 +15°C° 0,8 mm 2 m/S 751 mmHg 94%
    09:00 +15°C° 0,9 mm 2 m/S 751 mmHg 92%
    10:00 +16°C° 0,9 mm 2 m/S 751 mmHg 90%
    11:00 +16°C° 0,9 mm 2 m/S 751 mmHg 88%
    12:00 +18°C° 0,2 mm 1 m/S 751 mmHg 82%
    13:00 +19°C° 0,2 mm 1 m/S 751 mmHg 75%
    14:00 +20°C° 0,2 mm 1 m/S 751 mmHg 69%
    15:00 +20°C° 0,1 mm 1 m/S 750 mmHg 69%
    16:00 +21°C° 0,1 mm 1 m/S 750 mmHg 68%
    17:00 +21°C° 0,1 mm 1 m/S 750 mmHg 68%
    18:00 +19°C° 0 mm 1 m/S 750 mmHg 74%
    19:00 +17°C° 0 mm 2 m/S 750 mmHg 80%
    20:00 +15°C° 0 mm 2 m/S 750 mmHg 87%
    21:00 +15°C° 0 mm 2 m/S 749 mmHg 88%
    22:00 +14°C° 0 mm 2 m/S 749 mmHg 90%
    23:00 +13°C° 0 mm 2 m/S 749 mmHg 92%

    22 August, Dienstag

    Zeit Temperatur Niederschläge Wind Luftdruck Luftfeuchtigkeit
    00:00 +13°C° 0 mm 2 m/S 749 mmHg 93%
    01:00 +13°C° 0 mm 2 m/S 749 mmHg 93%
    02:00 +13°C° 0 mm 2 m/S 749 mmHg 94%
    03:00 +13°C° 0 mm 2 m/S 749 mmHg 94%
    04:00 +13°C° 0 mm 2 m/S 748 mmHg 94%
    05:00 +13°C° 0 mm 2 m/S 748 mmHg 94%
    06:00 +14°C° 0 mm 2 m/S 748 mmHg 90%
    07:00 +15°C° 0 mm 2 m/S 748 mmHg 86%
    08:00 +16°C° 0 mm 2 m/S 748 mmHg 82%
    09:00 +18°C° 0 mm 3 m/S 748 mmHg 75%
    10:00 +19°C° 0 mm 3 m/S 748 mmHg 68%
    11:00 +21°C° 0 mm 3 m/S 747 mmHg 61%
    12:00 +21°C° 0 mm 3 m/S 747 mmHg 59%
    13:00 +22°C° 0 mm 3 m/S 747 mmHg 58%
    14:00 +22°C° 0 mm 3 m/S 746 mmHg 56%
    15:00 +22°C° 0 mm 3 m/S 746 mmHg 58%
    16:00 +22°C° 0 mm 3 m/S 746 mmHg 60%
    17:00 +22°C° 0 mm 3 m/S 745 mmHg 62%
    18:00 +21°C° 0 mm 3 m/S 745 mmHg 68%
    19:00 +19°C° 0 mm 3 m/S 745 mmHg 73%
    20:00 +17°C° 0 mm 3 m/S 745 mmHg 79%
    21:00 +17°C° 0 mm 3 m/S 745 mmHg 79%
    22:00 +16°C° 0 mm 3 m/S 745 mmHg 79%
    23:00 +16°C° 0 mm 3 m/S 745 mmHg 80%
    Mehr zeigen